Time,TemperatureF,DewpointF,PressureIn,WindDirection,WindDirectionDegrees,WindSpeedMPH,WindSpeedGustMPH,Humidity,HourlyPrecipIn,Conditions,Clouds,dailyrainin,SoftwareType,DateUTC
2013-01-13 00:03:00,40.0,39.0,30.15,SW,223,1.0,4.0,97,0.00,,,0.00,,2013-01-13 05:03:00,
2013-01-13 00:12:00,40.0,39.0,30.15,SW,223,1.0,4.0,97,0.00,,,0.00,,2013-01-13 05:12:00,
2013-01-13 00:22:00,40.0,39.0,30.15,WSW,244,1.0,3.0,97,0.00,,,0.00,,2013-01-13 05:22:00,
2013-01-13 00:32:00,40.0,39.0,30.15,SW,218,0.0,3.0,97,0.00,,,0.00,,2013-01-13 05:32:00,
2013-01-13 00:42:00,40.0,39.0,30.15,SW,218,0.0,3.0,97,0.00,,,0.00,,2013-01-13 05:42:00,
2013-01-13 00:53:00,40.0,39.0,30.16,WSW,252,2.0,4.0,97,0.00,,,0.00,,2013-01-13 05:53:00,
2013-01-13 01:03:00,40.0,39.0,30.15,WSW,240,0.0,3.0,97,0.00,,,0.00,,2013-01-13 06:03:00,
2013-01-13 01:12:00,40.0,39.0,30.15,WSW,245,1.0,2.0,97,0.00,,,0.00,,2013-01-13 06:12:00,
2013-01-13 01:22:00,40.0,39.0,30.15,WSW,245,1.0,2.0,97,0.00,,,0.00,,2013-01-13 06:22:00,
2013-01-13 01:32:00,40.0,39.0,30.14,WSW,239,0.0,2.0,98,0.00,,,0.00,,2013-01-13 06:32:00,
2013-01-13 01:42:00,40.0,39.0,30.14,WSW,239,0.0,2.0,98,0.00,,,0.00,,2013-01-13 06:42:00,
2013-01-13 01:52:00,40.0,39.0,30.14,SSW,212,0.0,1.0,98,0.00,,,0.00,,2013-01-13 06:52:00,
2013-01-13 02:02:00,40.0,39.0,30.15,West,259,0.0,2.0,98,0.00,,,0.00,,2013-01-13 07:02:00,
2013-01-13 02:12:00,40.0,39.0,30.15,West,259,0.0,2.0,98,0.00,,,0.00,,2013-01-13 07:12:00,
2013-01-13 02:22:00,40.0,39.0,30.15,West,259,0.0,1.0,98,0.00,,,0.00,,2013-01-13 07:22:00,
2013-01-13 02:32:00,40.0,39.0,30.15,WNW,294,0.0,1.0,98,0.00,,,0.00,,2013-01-13 07:32:00,
2013-01-13 02:42:00,40.0,39.0,30.15,WNW,294,0.0,1.0,98,0.00,,,0.00,,2013-01-13 07:42:00,
2013-01-13 02:53:00,40.0,39.0,30.14,WNW,294,0.0,0.0,98,0.00,,,0.00,,2013-01-13 07:53:00,
2013-01-13 03:02:00,40.0,39.0,30.14,WNW,294,0.0,1.0,98,0.00,,,0.00,,2013-01-13 08:02:00,
2013-01-13 03:12:00,40.0,39.0,30.14,WNW,294,0.0,1.0,98,0.00,,,0.00,,2013-01-13 08:12:00,
2013-01-13 03:22:00,40.0,39.0,30.13,WNW,294,0.0,0.0,98,0.00,,,0.00,,2013-01-13 08:22:00,
2013-01-13 03:32:00,39.0,39.0,30.12,WNW,294,0.0,1.0,100,0.00,,,0.00,,2013-01-13 08:32:00,
2013-01-13 03:42:00,39.0,39.0,30.12,WNW,294,0.0,1.0,100,0.00,,,0.00,,2013-01-13 08:42:00,
2013-01-13 03:53:00,39.0,39.0,30.12,WNW,294,0.0,1.0,100,0.00,,,0.00,,2013-01-13 08:53:00,
2013-01-13 05:33:00,41.0,-99.9,30.09,West,266,0.0,1.0,-999,0.00,,,0.00,,2013-01-13 10:33:00,
2013-01-13 05:42:00,41.0,-99.9,30.09,West,266,0.0,1.0,-999,0.00,,,0.00,,2013-01-13 10:42:00,
2013-01-13 05:53:00,41.0,40.0,30.09,WSW,249,0.0,2.0,98,0.00,,,0.00,,2013-01-13 10:53:00,
2013-01-13 06:02:00,42.0,41.0,30.09,West,259,0.0,1.0,98,0.00,,,0.00,,2013-01-13 11:02:00,
2013-01-13 06:12:00,42.0,41.0,30.09,West,259,0.0,1.0,98,0.00,,,0.00,,2013-01-13 11:12:00,
2013-01-13 06:22:00,42.0,41.0,30.09,WSW,250,0.0,2.0,98,0.00,,,0.00,,2013-01-13 11:22:00,
2013-01-13 06:32:00,42.0,41.0,30.09,WSW,241,1.0,2.0,98,0.00,,,0.00,,2013-01-13 11:32:00,
2013-01-13 06:42:00,42.0,41.0,30.09,WSW,241,1.0,2.0,98,0.00,,,0.00,,2013-01-13 11:42:00,
2013-01-13 06:53:00,42.0,41.0,30.09,SW,226,0.0,1.0,98,0.00,,,0.00,,2013-01-13 11:53:00,
2013-01-13 07:03:00,42.0,41.0,30.09,SW,232,1.0,2.0,98,0.00,,,0.00,,2013-01-13 12:03:00,
2013-01-13 07:12:00,42.0,41.0,30.09,SW,232,1.0,2.0,98,0.00,,,0.00,,2013-01-13 12:12:00,
2013-01-13 09:53:00,45.0,45.0,30.14,SSE,162,0.0,3.0,99,0.00,,,0.00,,2013-01-13 14:53:00,
2013-01-13 10:03:00,46.0,46.0,30.12,SSE,160,2.0,4.0,99,0.00,,,0.00,,2013-01-13 15:03:00,
2013-01-13 10:12:00,46.0,46.0,30.12,SSE,160,2.0,4.0,99,0.00,,,0.00,,2013-01-13 15:12:00,
2013-01-13 10:23:00,46.0,46.0,30.13,SSW,212,1.0,6.0,99,0.00,,,0.00,,2013-01-13 15:23:00,
2013-01-13 10:33:00,47.0,47.0,30.13,SW,224,2.0,3.0,99,0.00,,,0.00,,2013-01-13 15:33:00,
2013-01-13 10:43:00,47.0,47.0,30.13,SW,224,2.0,3.0,99,0.00,,,0.00,,2013-01-13 15:43:00,
2013-01-13 10:53:00,47.0,47.0,30.12,SSW,210,0.0,3.0,99,0.00,,,0.00,,2013-01-13 15:53:00,
2013-01-13 11:03:00,47.0,47.0,30.12,SW,226,1.0,3.0,99,0.00,,,0.00,,2013-01-13 16:03:00,
2013-01-13 11:12:00,47.0,47.0,30.12,SW,226,1.0,3.0,99,0.00,,,0.00,,2013-01-13 16:12:00,
2013-01-13 11:23:00,48.0,48.0,30.11,SSE,166,0.0,2.0,99,0.00,,,0.00,,2013-01-13 16:23:00,
2013-01-13 11:33:00,49.0,49.0,30.10,WSW,249,0.0,2.0,99,0.00,,,0.00,,2013-01-13 16:33:00,
2013-01-13 11:43:00,49.0,49.0,30.10,WSW,249,0.0,2.0,99,0.00,,,0.00,,2013-01-13 16:43:00,
2013-01-13 11:53:00,50.0,49.0,30.09,SSW,212,0.0,2.0,98,0.00,,,0.00,,2013-01-13 16:53:00,
2013-01-13 12:03:00,50.0,49.0,30.09,SSW,212,0.0,2.0,98,0.00,,,0.00,,2013-01-13 17:03:00,
2013-01-13 12:12:00,50.0,49.0,30.09,SSW,212,0.0,2.0,98,0.00,,,0.00,,2013-01-13 17:12:00,
2013-01-13 12:22:00,51.0,50.0,30.08,WSW,243,1.0,3.0,98,0.00,,,0.00,,2013-01-13 17:22:00,
2013-01-13 12:33:00,51.0,50.0,30.07,West,259,0.0,2.0,98,0.00,,,0.00,,2013-01-13 17:33:00,
2013-01-13 12:43:00,51.0,50.0,30.07,West,259,0.0,2.0,98,0.00,,,0.00,,2013-01-13 17:43:00,
2013-01-13 12:53:00,51.0,50.0,30.06,WSW,257,0.0,2.0,98,0.00,,,0.00,,2013-01-13 17:53:00,
2013-01-13 13:03:00,51.0,50.0,30.06,West,269,0.0,3.0,98,0.00,,,0.00,,2013-01-13 18:03:00,
2013-01-13 13:12:00,51.0,50.0,30.06,West,269,0.0,3.0,98,0.00,,,0.00,,2013-01-13 18:12:00,
2013-01-13 13:23:00,51.0,50.0,30.06,ESE,120,0.0,1.0,98,0.00,,,0.00,,2013-01-13 18:23:00,
2013-01-13 13:33:00,51.0,50.0,30.05,ESE,120,0.0,1.0,98,0.00,,,0.00,,2013-01-13 18:33:00,
2013-01-13 13:43:00,51.0,50.0,30.05,ESE,120,0.0,1.0,98,0.00,,,0.00,,2013-01-13 18:43:00,
2013-01-13 13:53:00,52.0,52.0,30.05,ESE,120,0.0,1.0,99,0.00,,,0.00,,2013-01-13 18:53:00,
2013-01-13 14:03:00,52.0,52.0,30.04,ESE,120,0.0,1.0,99,0.00,,,0.00,,2013-01-13 19:03:00,
2013-01-13 14:12:00,52.0,52.0,30.04,ESE,120,0.0,1.0,99,0.00,,,0.00,,2013-01-13 19:12:00,
2013-01-13 14:22:00,52.0,52.0,30.04,SE,145,0.0,1.0,99,0.00,,,0.00,,2013-01-13 19:22:00,
2013-01-13 14:33:00,52.0,52.0,30.04,SE,146,0.0,1.0,99,0.00,,,0.00,,2013-01-13 19:33:00,
2013-01-13 14:43:00,52.0,52.0,30.04,SE,146,0.0,1.0,99,0.00,,,0.00,,2013-01-13 19:43:00,
2013-01-13 14:53:00,52.0,52.0,30.05,SE,146,0.0,0.0,99,0.00,,,0.00,,2013-01-13 19:53:00,
2013-01-13 15:03:00,53.0,53.0,30.05,SE,145,0.0,1.0,99,0.00,,,0.00,,2013-01-13 20:03:00,
2013-01-13 15:12:00,53.0,53.0,30.05,SE,145,0.0,1.0,99,0.00,,,0.00,,2013-01-13 20:12:00,
2013-01-13 15:22:00,52.0,51.0,30.05,SW,215,0.0,1.0,98,0.00,,,0.00,,2013-01-13 20:22:00,
2013-01-13 15:33:00,53.0,53.0,30.05,South,174,0.0,1.0,99,0.00,,,0.00,,2013-01-13 20:33:00,
2013-01-13 15:43:00,53.0,53.0,30.05,South,174,0.0,1.0,99,0.00,,,0.00,,2013-01-13 20:43:00,
2013-01-13 15:53:00,52.0,52.0,30.05,WNW,295,1.0,2.0,99,0.00,,,0.00,,2013-01-13 20:53:00,
2013-01-13 16:03:00,53.0,53.0,30.05,West,274,0.0,1.0,99,0.00,,,0.00,,2013-01-13 21:03:00,
2013-01-13 16:12:00,53.0,53.0,30.05,West,274,0.0,1.0,99,0.00,,,0.00,,2013-01-13 21:12:00,
2013-01-13 16:23:00,53.0,53.0,30.06,WSW,245,0.0,2.0,99,0.01,,,0.01,,2013-01-13 21:23:00,
2013-01-13 16:33:00,53.0,53.0,30.05,West,259,1.0,3.0,99,0.01,,,0.01,,2013-01-13 21:33:00,
2013-01-13 16:43:00,53.0,53.0,30.05,West,259,1.0,3.0,99,0.01,,,0.01,,2013-01-13 21:43:00,
2013-01-13 16:53:00,53.0,53.0,30.05,WSW,250,0.0,3.0,99,0.01,,,0.01,,2013-01-13 21:53:00,
2013-01-13 17:02:00,53.0,53.0,30.05,WSW,238,2.0,3.0,99,0.01,,,0.01,,2013-01-13 22:02:00,
2013-01-13 17:12:00,53.0,53.0,30.05,WSW,238,2.0,3.0,99,0.01,,,0.01,,2013-01-13 22:12:00,
2013-01-13 17:22:00,53.0,53.0,30.05,WSW,256,1.0,3.0,99,0.00,,,0.01,,2013-01-13 22:22:00,
2013-01-13 17:33:00,53.0,53.0,30.05,West,262,0.0,1.0,99,0.00,,,0.01,,2013-01-13 22:33:00,
2013-01-13 17:43:00,53.0,53.0,30.05,West,262,0.0,1.0,99,0.00,,,0.01,,2013-01-13 22:43:00,
2013-01-13 17:53:00,53.0,53.0,30.06,West,262,0.0,1.0,99,0.00,,,0.01,,2013-01-13 22:53:00,
2013-01-13 18:02:00,53.0,53.0,30.05,West,281,0.0,2.0,99,0.00,,,0.01,,2013-01-13 23:02:00,
2013-01-13 18:12:00,53.0,53.0,30.05,West,281,0.0,2.0,99,0.00,,,0.01,,2013-01-13 23:12:00,
2013-01-13 18:23:00,53.0,53.0,30.05,West,281,0.0,0.0,99,0.00,,,0.01,,2013-01-13 23:23:00,
2013-01-13 18:33:00,53.0,53.0,30.04,West,281,0.0,1.0,99,0.00,,,0.01,,2013-01-13 23:33:00,
2013-01-13 18:42:00,53.0,53.0,30.04,West,281,0.0,1.0,99,0.00,,,0.01,,2013-01-13 23:42:00,
2013-01-13 18:53:00,53.0,53.0,30.04,West,281,0.0,0.0,99,0.00,,,0.01,,2013-01-13 23:53:00,
2013-01-13 19:03:00,53.0,53.0,30.03,SW,235,1.0,2.0,99,0.00,,,0.01,,2013-01-14 00:03:00,
2013-01-13 19:12:00,53.0,53.0,30.03,SW,235,1.0,2.0,99,0.00,,,0.01,,2013-01-14 00:12:00,
2013-01-13 19:22:00,53.0,53.0,30.03,SW,215,1.0,3.0,99,0.00,,,0.01,,2013-01-14 00:22:00,
2013-01-13 19:33:00,53.0,53.0,30.04,West,264,0.0,2.0,99,0.00,,,0.01,,2013-01-14 00:33:00,
2013-01-13 19:43:00,53.0,53.0,30.04,West,264,0.0,2.0,99,0.00,,,0.01,,2013-01-14 00:43:00,
2013-01-13 19:53:00,54.0,54.0,30.03,WSW,248,3.0,5.0,99,0.00,,,0.01,,2013-01-14 00:53:00,
2013-01-13 20:03:00,54.0,54.0,30.03,West,267,1.0,3.0,99,0.00,,,0.01,,2013-01-14 01:03:00,
2013-01-13 20:12:00,54.0,54.0,30.03,West,267,1.0,3.0,99,0.00,,,0.01,,2013-01-14 01:12:00,
2013-01-13 20:22:00,54.0,54.0,30.02,WSW,248,2.0,4.0,99,0.00,,,0.01,,2013-01-14 01:22:00,
2013-01-13 20:32:00,54.0,54.0,30.02,SW,235,3.0,4.0,99,0.00,,,0.01,,2013-01-14 01:32:00,
2013-01-13 20:42:00,54.0,54.0,30.02,SW,235,3.0,4.0,99,0.00,,,0.01,,2013-01-14 01:42:00,
2013-01-13 20:53:00,54.0,54.0,30.01,WSW,241,2.0,5.0,99,0.00,,,0.01,,2013-01-14 01:53:00,
2013-01-13 21:03:00,53.0,53.0,30.01,WSW,246,0.0,2.0,99,0.00,,,0.01,,2013-01-14 02:03:00,
2013-01-13 21:12:00,54.0,54.0,30.00,WSW,240,1.0,3.0,99,0.00,,,0.01,,2013-01-14 02:12:00,
2013-01-13 21:22:00,54.0,54.0,30.00,WSW,240,1.0,3.0,99,0.00,,,0.01,,2013-01-14 02:22:00,
2013-01-13 21:33:00,54.0,54.0,30.00,SW,236,0.0,1.0,99,0.00,,,0.01,,2013-01-14 02:33:00,
2013-01-13 21:42:00,54.0,54.0,30.00,SW,236,0.0,1.0,99,0.00,,,0.01,,2013-01-14 02:42:00,
2013-01-13 21:53:00,54.0,54.0,30.00,NW,308,0.0,2.0,99,0.00,,,0.01,,2013-01-14 02:53:00,
2013-01-13 22:03:00,54.0,54.0,30.00,SW,221,0.0,0.0,99,0.00,,,0.01,,2013-01-14 03:03:00,
2013-01-13 22:12:00,54.0,54.0,30.00,SW,221,0.0,0.0,99,0.00,,,0.01,,2013-01-14 03:12:00,
2013-01-13 22:22:00,54.0,54.0,30.01,SSW,212,1.0,2.0,99,0.00,,,0.01,,2013-01-14 03:22:00,
2013-01-13 22:32:00,54.0,54.0,30.00,South,177,0.0,3.0,99,0.00,,,0.01,,2013-01-14 03:32:00,
2013-01-13 22:42:00,54.0,54.0,30.00,South,177,0.0,3.0,99,0.00,,,0.01,,2013-01-14 03:42:00,
2013-01-13 22:53:00,54.0,54.0,30.00,SW,236,0.0,1.0,99,0.00,,,0.01,,2013-01-14 03:53:00,
2013-01-13 23:02:00,54.0,54.0,30.00,SW,236,0.0,1.0,99,0.00,,,0.01,,2013-01-14 04:02:00,
2013-01-13 23:12:00,54.0,54.0,30.00,SW,236,0.0,1.0,99,0.00,,,0.01,,2013-01-14 04:12:00,
2013-01-13 23:22:00,54.0,54.0,30.00,SW,236,0.0,1.0,99,0.00,,,0.01,,2013-01-14 04:22:00,
2013-01-13 23:32:00,54.0,54.0,30.00,SW,236,0.0,1.0,99,0.00,,,0.01,,2013-01-14 04:32:00,
2013-01-13 23:42:00,54.0,54.0,30.00,SW,236,0.0,1.0,99,0.00,,,0.01,,2013-01-14 04:42:00,
2013-01-13 23:53:00,54.0,54.0,29.99,WSW,237,0.0,1.0,99,0.00,,,0.01,,2013-01-14 04:53:00,